Regional Weather Roundup
Issued by NWS Pendleton, OR

Home | Current Version | Previous Version | Text Only | Print | Product List | Glossary On
Versions: 1 2 3 4 5 6 7 8 9 10 11 12 13 14 15 16 17 18 19 20 21 22 23 24 25 26 27 28 29 30 31 32 33 34 35 36 37 38 39 40 41 42 43 44 45 46 47 48 49 50
000
ASUS46 KPDT 300625
RWRPDT
PENDLETON REGIONAL WEATHER ROUNDUP
NATIONAL WEATHER SERVICE PENDLETON OREGON
1100 PM PDT WED MAR 29 2017

NOTE: FAIR INDICATES FEW OR NO CLOUDS BELOW 12,000 FEET WITH NO
SIGNIFICANT WEATHER AND/OR OBSTRUCTIONS TO VISIBILITY.

# INDICATES UNOFFICIAL STATION AND DATA

WAZ520-300710-
EAST SLOPES OF WASHINGTON CASCADES

CITY            SKY/WX      TMP DP  RH  WIND    PRES   REMARKS
#CLE ELUM HS    N/A         39  34  82  N1      29.88R
#CLE ELUM LAKE  N/A         N/A N/A N/A NW9     29.94R
#GLENWOOD       N/A         42  38  86  SW2     29.94F
#MANASTASH CYN  N/A         34  30  85  CALM    29.87R
#NELSON 3SW     N/A         34  33  96  E1      30.17R
#NILE           N/A         36  34  92  CALM    29.19R
#TEANAWAY 4NE   N/A         39  37  92  CALM    N/A
#TROUT LAKE 1NE N/A         41  38  89  CALM    29.98R
#TROUT LAKE 1E  N/A         35  34  96  CALM    29.98R
$$

WAZ521-300710-
SIMCOE HIGHLANDS

CITY            SKY/WX      TMP DP  RH  WIND    PRES   REMARKS
#BICKLETON HS   N/A         41  35  79  SW22    29.92F WCI 31
#CENTERVILLE 1SWN/A         43  38  82  W10     29.93R
#GOLDENDALE 1NE N/A         46  32  58  W3      N/A
#GOLDENDALE 4W  N/A         45  24  43  W9      29.98S
#GOODNOE HILLS  N/A         48  37  65  W24     29.84R WCI 40
#LYLE 6NE       N/A         45  42  89  SW7     29.94R
#PITT 4SE       N/A         41  38  89  W10     29.99R
$$

WAZ026-300710-
KITTITAS VALLEY

CITY            SKY/WX      TMP DP  RH  WIND    PRES   REMARKS
ELLENSBURG AP   CLEAR       43  35  73  W10     29.89R
6HR MIN TEMP:   43; 6HR MAX TEMP:   53; 6HR PCP:  TRACE;

#ELLENSBURG CWU N/A         43  37  79  NW13    29.85R WCI 36
#ELLENSBURG 3NE N/A         42  37  82  W6      27.98R
#ELLENSBURG 1E  N/A         43  N/A N/A NW2     N/A
#ELLENSBURG 13S N/A         46  36  68  CALM    N/A
#KITTITAS 4N    N/A         42  34  73  N10     29.92R
#KITTITAS 3S    N/A         42  38  86  NW7     29.89R
#THORP 6N       N/A         39  35  85  W16G26  29.94R WCI 30
$$

WAZ027-300710-
YAKIMA VALLEY

CITY            SKY/WX      TMP DP  RH  WIND    PRES   REMARKS
SUNNYSIDE AP    CLEAR       49  36  61  SW14    29.90R WCI 44
YAKIMA AIRPORT  CLEAR       48  36  63  CALM    29.90R
6HR MIN TEMP:   46; 6HR MAX TEMP:   64;

YAKIMA-VAGABOND CLEAR       45  33  63  SW5     29.87R
6HR MIN TEMP:   45; 6HR MAX TEMP:   60;

#DONALD 2NE     N/A         59   3  10  S14     30.07S
#GRANDVIEW      N/A         50  35  56  W2      29.91S
#MABTON         N/A         50  38  63  SW2     29.90R
#MOXEE 2E       N/A         46   0  14  N3      29.88R
#NACHES 2SW     N/A         45  37  73  W3      29.84S
#TERRACE HTS    N/A         44  35  70  CALM    29.87R
#TOPPENISH      N/A         51  38  61  NW5     29.82R
#WEST VALLEY    N/A         48  35  60  NW1     29.88R
#W YAKIMA       N/A         48  35  60  W1      29.90R
#WHITE SWAN 5E  N/A         49  39  68  W2      29.89R
#WILEY CITY 3W  N/A         47  31  53  W1      29.85R
$$

WAZ028-300710-
LOWER COLUMBIA BASIN...WASHINGTON

CITY            SKY/WX      TMP DP  RH  WIND    PRES   REMARKS
PASCO           CLEAR       52  38  59  SW12    29.89R
6HR MIN TEMP:   51; 6HR MAX TEMP:   60;

PROSSER AWOS    N/A         48  37  65  W5      29.93R
RICHLAND AWOS   CLEAR       53  39  59  W14     29.89R
#BENTON CITY    N/A         48  39  71  W1      29.80S
#CONNELL 5N     N/A         46  42  86  W6      29.87R
#CONNELL 5NW    N/A         46  41  83  W7      29.81S
#ELTOPIA 6NW    N/A         50  41  71  W3      28.85R
#KAHLOTUS       N/A         48  40  74  W22G29  29.86S WCI 41
#KENNEWICK 3S   N/A         50  39  66  W5      29.89F
#PATERSON       N/A         50  42  74  N5      29.90S
#SAGEMOOR 2W    N/A         50  39  66  SW10    29.75S
#TOUCHET 2S     N/A         52  44  74  W13     29.88S
#WEST PASCO     N/A         53  39  59  NW5     29.88R
$$

WAZ029-300710-
FOOTHILLS OF THE BLUES...WASHINGTON

CITY            SKY/WX      TMP DP  RH  WIND    PRES   REMARKS
WALLA WALLA AP  PTCLDY      52  44  74  SW14    29.90F
6HR MIN TEMP:   52; 6HR MAX TEMP:   59;

#CLYDE 6NW      N/A         50  41  71  W10     29.87R
#DAYTON SCHOOL  N/A         50  39  66  S7      29.92S
#LOWDEN 2SE     N/A         52  45  77  CALM    29.88S
#PLEASANT VIEW 1N/A         45  42  89  SW7     29.91S
#PRESCOTT       N/A         52  45  77  SW3     29.88R
#WHITMAN COLLEGEN/A         52  44  74  SW5     29.96R
#WAITSBURG 5S   N/A         49  44  83  SW6     29.99S
#WAITSBURG 8N   N/A         46  N/A N/A S12     29.89S WCI 40
#WALLA WALLA 5E N/A         51  46  83  S13     N/A
#WALLA WALLA U  N/A         53  45  74  S7      29.91S
#WHITMAN MISSIONN/A         53  46  77  SW3     29.93R
$$

WAZ030-300710-
BLUE MOUNTAINS...WASHINGTON

CITY            SKY/WX      TMP DP  RH  WIND    PRES   REMARKS
#DIXIE 5SE      N/A         44  41  89  SW13    29.84R WCI 38
$$

ORZ009-041-WAZ024-300710-
COLUMBIA RIVER GORGE

CITY            SKY/WX      TMP DP  RH  WIND    PRES   REMARKS
HOOD RIVER AP   CLOUDY      48  41  77  W3      30.00R
THE DALLES AP   MOCLEAR     51  42  71  W16     29.97R
6HR MIN TEMP:   51; 6HR MAX TEMP:   63;

#ARLINGTON AIRPON/A         50  40  68  W15     29.94S
#CELILO DOT     N/A         52  35  52  SW9     N/A
#LYLE           N/A         50  45  83  NW9     30.00R
#MOSIER 1S      N/A         47  36  65  CALM    29.97R
#MURDOCK        N/A         51  44  77  NW12    29.94R
#RUFUS DOT      N/A         54  39  57  NW16    N/A
#SMITHVILLE     N/A         50  44  80  N10     29.92R

$$

ORZ510-300710-
NORTH CENTRAL OREGON

CITY            SKY/WX      TMP DP  RH  WIND    PRES   REMARKS
#ANTELOPE       N/A         44  37  76  NW6     29.81S
#CHENOWITH 1W   N/A         43  39  86  W21     N/A    WCI 34
#COW CYN RST AREN/A         42  38  86  W8      N/A
#DUFUR          N/A         45  36  70  NW2     29.93R
#DUFUR 9E       N/A         44  36  73  W15G26  30.01S WCI 37
#GRASS VALLEY 1SN/A         42  37  82  NW2     30.09S
#KENT DOT       N/A         44  33  65  N16     N/A    WCI 37
#MAUPIN SCHOOL  N/A         49  37  63  W7      30.01R
#MORO SCHOOL    N/A         47  42  83  W6      30.03R
#SHANIKO 5WSW   N/A         41  33  73  N16     N/A    WCI 33
#SHANIKO 4NW    N/A         40  36  85  W13     29.94R WCI 32
#TYGH VALLEY 2NEN/A         47  39  74  N3      29.95R
#WAPANITIA AIRPON/A         44  37  76  W7      29.98S
#WASCO DOT      N/A         46  39  76  SW6     N/A
#WASCO 5NE      N/A         45  40  82  SW7     29.95R
$$

ORZ511-300710-
CENTRAL OREGON

CITY            SKY/WX      TMP DP  RH  WIND    PRES   REMARKS
BEND AIRPORT    LGT RAIN    43  39  86  N5      29.94F
MADRAS AIRPORT  CLOUDY      45  37  73  N10     29.97R
PRINEVILLE AP   LGT RAIN    43  41  93  W8      29.94F
REDMOND AIRPORT LGT RAIN    44  38  79  NW8     29.95S
#ASHWOOD SCHOOL N/A         47  39  74  NW8     29.93R
#BEND 1SW       N/A         41  39  93  S1      N/A
#BEND-AWBREY    N/A         42  39  89  CALM    29.93S
#BEND-KIM LN    N/A         42  39  89  NW5     29.86F
#CULVER         N/A         45  36  70  S3      29.86S
#CULVER 8W      N/A         45  36  70  SW1     29.97S
#POWELL BUTTE   N/A         43  40  89  NW9     29.91S
#PRINEVILLE     N/A         44  41  89  CALM    30.02F
#PRINEVILLE 3N  N/A         44  42  93  CALM    29.92F
#WARM SPRINGS   N/A         48  39  71  CALM    29.92R

$$


ORZ509-300710-
EAST SLOPES OF OREGON CASCADES

CITY            SKY/WX      TMP DP  RH  WIND    PRES   REMARKS
SISTERS AWOS    N/A         43  37  79  SW5     29.93R
#BLUE BOX PASS  N/A         35  N/A N/A NW3     N/A
#CAMP SHERMAN   N/A         41  38  89  CALM    30.01S
#LA PINE 4NW    N/A         39  36  89  CALM    29.97F
#LAVA BUTTE DOT N/A         39  37  92  CALM    N/A
#SISTERS 3N     N/A         41  35  79  NW3     30.08S
#SUNRIVER       N/A         40  39  96  CALM    29.95F
#TUMALO 3W      N/A         41  38  89  N5      29.80F
#WANOGA BUTTE D N/A         33  33  100 S1      N/A

$$

ORZ044-300710-
LOWER COLUMBIA BASIN...OREGON

CITY            SKY/WX      TMP DP  RH  WIND    PRES   REMARKS
HERMISTON       CLOUDY      50  45  83  SW8     29.92S
6HR MIN TEMP:   48; 6HR MAX TEMP:   60;

#BOARDMAN SCHOOLN/A         54  43  66  S7      29.91R
#BOARDMAN 8SW   N/A         51  45  80  SW13    29.91S
#ECHO 8SW       N/A         51  44  77  W5      29.93R
#I-84 EX 198 DOTN/A         49  44  83  N10     N/A
#IONE SCHOOL    N/A         49  31  50  SW6     29.96R
#UMATILLA       N/A         51  41  68  S6      29.85R
$$

ORZ507-300710-
NORTHERN FOOTHILLS OF THE BLUES

CITY            SKY/WX      TMP DP  RH  WIND    PRES   REMARKS
PENDLETON AIRPT MOCLDY      49  44  83  W13     29.92R WCI 44
6HR MIN TEMP:   48; 6HR MAX TEMP:   57;

#ADAMS 3WNW     N/A         46  43  89  W5      29.92R
#ATHENA         N/A         46  43  89  SW1     29.94R
#CAYUSE         N/A         49  44  83  SW6     29.91S
#HELIX SCHOOL   N/A         48  44  86  N6      29.93R
#HELIX 3N       N/A         46  42  86  SW12    29.89S WCI 40
#HOLDMAN 5SE    N/A         48  44  86  W3      29.92S
#HOLDMAN 6E     N/A         47  44  89  SW5     29.73R
#M-F FERNDALE   N/A         53  43  69  CALM    29.90R
#M-F GROVE ELEM N/A         51  42  71  CALM    29.91R
#M-FREEWATER 5SEN/A         50  43  77  SW3     29.93R
#PENDLETON DNTN N/A         50  47  89  CALM    29.92S
#PDT AQUATIC CTRN/A         50  44  80  SW2     29.93S
#PDT SUNRIDGE   N/A         49  44  83  W5      29.94R
#PENDLETON 7NW  N/A         48  42  80  W6      29.50S
#PILOT ROCK 1S  N/A         49  41  74  CALM    29.94R
#PILOT ROCK     N/A         49  44  83  W6      29.95R
#TUTUILLA       N/A         48  44  86  W2      29.94R
#UMAPINE 2E     N/A         53  51  93  W1      29.92S
#WESTON SCHOOL  N/A         48  42  80  W5      29.96S

$$

ORZ508-300710-
SOUTHERN FOOTHILLS OF THE BLUES

CITY            SKY/WX      TMP DP  RH  WIND    PRES   REMARKS
LEXINGTON       MOCLDY      48  43  83  W13     29.97R WCI 43
#AJAX           N/A         46  33  60  SW7     30.10R
#CONDON SCHOOL  N/A         45  39  79  W12     29.90R WCI 39
#CONDON 5W      N/A         41  36  82  W12     29.91S WCI 34
#HEPPNER EOC    N/A         44  41  89  W5      29.87R
#HEPPNER 4NE    N/A         43  41  93  W9      29.92S
#LEXINGTON 2SE  N/A         48  42  80  CALM    29.90R
#MIKKALO        N/A         47  39  74  NW7     30.05R
#OLEX 4N        N/A         49  44  83  W10     29.93R
#RUGGS 5NE      N/A         43  42  96  W8      30.07S
#RUGGS 2SW      N/A         43  40  89  NW8     29.94R

$$

ORZ502-503-300710-
BLUE MOUNTAINS

CITY            SKY/WX      TMP DP  RH  WIND    PRES   REMARKS
MEACHAM         RAIN        42  38  86  VRB3    29.91S FOG
#BATTLE MTN DOT N/A         40  37  89  NE3     N/A
#GREENHORN 9SW  N/A         41  41  100 CALM    26.13F
#HARDMAN 10S    N/A         42  38  86  CALM    30.04F
#HEPPNER 15SE   N/A         39  37  92  W2      29.94F
#LADD CYN SMT   N/A         42  41  96  NE3     N/A
#LADD CREEK ODOTN/A         41  40  96  W2      N/A
#LONG CREEK HS  N/A         44  42  93  CALM    N/A
#N POWDER DOT   N/A         39  39  100 NE3     N/A
#PIKES PEAK     N/A         42  38  86  W18G29  27.99S WCI 34
#TOLLGATE       N/A         36  35  96  S2      29.77F
#TROY SCHOOL    N/A         43  41  93  CALM    29.75F
#UKIAH          N/A         41  40  96  CALM    29.83S
#WESTON 4E      N/A         42  40  93  SW6     29.90F
$$

ORZ505-300710-
JOHN DAY BASIN

CITY            SKY/WX      TMP DP  RH  WIND    PRES   REMARKS
JOHN DAY        MOCLDY      46  40  79  CALM    29.92F
#JOHN DAY KJDY  N/A         46  N/A N/A S1      29.20F
#ANTELOPE 9ESE  N/A         52  41  66  W14G25  N/A
#DAYVILLE SCHOOLN/A         51  39  63  SW2     29.90S
#MITCHELL       N/A         45  43  93  CALM    30.09F
#MITCHELL 8NW   N/A         44  37  76  SW2     29.84F
#MONUMENT HS    N/A         47  44  89  CALM    29.88F
#MT. VERNON 5SE N/A         44  38  79  SW1     29.88F
#SPRAY SCHOOL   N/A         48  N/A N/A CALM    N/A
#WINLOCK        N/A         46  43  89  CALM    29.89F
$$

ORZ506-300710-
OCHOCO AND JOHN DAY HIGHLANDS

CITY            SKY/WX      TMP DP  RH  WIND    PRES   REMARKS
#HORSE RIDGE DO N/A         40  35  82  SE2     N/A
#PAULINA SCHOOL N/A         45  37  73  SW2     N/A
#PINE MTN OBS   N/A         34  33  96  SE7     N/A
#PRAIRIE CITY   N/A         41  39  93  CALM    30.08
#SENECA         N/A         37  N/A N/A NW1     N/A
#SENECA 9NW     N/A         35  34  96  CALM    29.93F
$$

ORZ049-300710-
GRANDE RONDE VALLEY

CITY            SKY/WX      TMP DP  RH  WIND    PRES   REMARKS
LA GRANDE       CLOUDY      48  39  71  CALM    29.90F
#COVE           N/A         46  44  93  CALM    29.95S
#COVE SCHOOL    N/A         46  43  89  CALM    29.94R
#COVE 6NW       N/A         46  42  86  CALM    29.92S
#ELGIN 3N       N/A         44  40  86  CALM    29.88F
#ELGIN 1E       N/A         46  42  86  CALM    N/A
#IMBLER SCHOOL  N/A         44  42  93  SE3     29.87F
#ISLAND CITY 4N N/A         46  42  86  CALM    30.07R
#UNION 1S       N/A         47  43  86  SE2     29.92S
$$

ORZ050-300710-
WALLOWA COUNTY

CITY            SKY/WX      TMP DP  RH  WIND    PRES   REMARKS
JOSEPH AIRPORT  LGT RAIN    43  39  86  S6      29.91F
#IMNAHA SCHOOL  N/A         48  44  86  CALM    29.91F
#JOSEPH 3N      N/A         41  36  82  S5      29.93F
#JOSEPH 3W      N/A         39  39  100 CALM    29.75F
#LOSTINE        N/A         42  41  96  CALM    29.71F
#LOSTINE 3SE    N/A         43  41  93  CALM    29.94F
#MT HOWARD 8000 N/A         29  28  96  CALM    29.88F
#PROMISE 1S     N/A         43  39  86  E6      29.97F
#WALLOWA SCHOOL N/A         43  42  96  CALM    29.88F



$$



USA.gov is the U.S. government's official web portal to all federal, state and local government web resources and services.